This is the latest recevied weather packets stored in our database for station/object KN6WGU. If no packets are shown the sender has not sent any weather packets the latest 10 day(s).
| Time | Temp. | Humidity | Pressure | Rain* | Wind** | Luminosity | Snow |
|---|---|---|---|---|---|---|---|
| 1787587103 | 19.44° C | 70% | 1009.8 hPa | 0 mm | - | 98 W/m² | - |
| 1787586798 | 20° C | 72% | 1009.8 hPa | 0 mm | - | 114 W/m² | - |
| 1787586493 | 19.44° C | 72% | 1009.7 hPa | 0 mm | - | 118 W/m² | - |
| 1787586189 | 19.44° C | 70% | 1009.7 hPa | 0 mm | - | 132 W/m² | - |
| 1787585885 | 19.44° C | 70% | 1009.6 hPa | 0 mm | - | 181 W/m² | - |
| 1787585584 | 19.44° C | 69% | 1009.6 hPa | 0 mm | - | 109 W/m² | - |
| 1787585280 | 19.44° C | 71% | 1009.6 hPa | 0 mm | - | 116 W/m² | - |
| 1787584980 | 19.44° C | 72% | 1009.7 hPa | 0 mm | - | 174 W/m² | - |
| 1787584674 | 18.89° C | 73% | 1009.5 hPa | 0 mm | - | 46 W/m² | - |
| 1787584372 | 19.44° C | 73% | 1009.6 hPa | 0 mm | - | 49 W/m² | - |
| 1787584072 | 19.44° C | 73% | 1009.4 hPa | 0 mm | - | 58 W/m² | - |
| 1787583767 | 18.89° C | 74% | 1009.3 hPa | 0 mm | - | 110 W/m² | - |
| 1787583462 | 18.89° C | 74% | 1009.5 hPa | 0 mm | - | 81 W/m² | - |
| 1787583161 | 18.89° C | 74% | 1009.1 hPa | 0 mm | - | 112 W/m² | - |
| 1787582857 | 18.89° C | 74% | 1009.1 hPa | 0 mm | - | 84 W/m² | - |
| 1787582552 | 18.89° C | 75% | 1009.3 hPa | 0 mm | - | 55 W/m² | - |
| 1787582251 | 18.33° C | 75% | 1009.2 hPa | 0 mm | - | 111 W/m² | - |
| 1787581946 | 18.89° C | 76% | 1009.1 hPa | 0 mm | - | 68 W/m² | - |
| 1787581641 | 18.33° C | 77% | 1009.1 hPa | 0 mm | - | 174 W/m² | - |
| 1787581336 | 18.33° C | 77% | 1009.1 hPa | 0 mm | - | 82 W/m² | - |
| 1787581031 | 18.33° C | 77% | 1009.1 hPa | 0 mm | - | 77 W/m² | - |
| 1787580727 | 17.78° C | 77% | 1009.1 hPa | 0 mm | - | 92 W/m² | - |
| 1787580422 | 17.78° C | 77% | 1008.9 hPa | 0 mm | - | 128 W/m² | - |
| 1787580117 | 17.78° C | 77% | 1008.8 hPa | 0 mm | - | 104 W/m² | - |
| 1787579817 | 17.78° C | 76% | 1009 hPa | 0 mm | - | 105 W/m² | - |
* Rain latest hour (hover to see other rain measurements)
** Current wind speed in m/s (hover to see current wind gust speed)